Ottumwa, IA

5:05 PM CDT on April 23, 2018 (GMT -0500)
Ottumwa Industrial

Weather History for KOTM - August, 2013

Change the Weather History Date:

Monday, August 19, 2013

  Actual Average Record
Temperature  
Mean Temperature 72 °F 73 °F  
Max Temperature 85 °F 84 °F 106 °F (1913)
Min Temperature 58 °F 62 °F 48 °F (1950)
Degree Days  
Heating Degree Days 0 0  
Month to date heating degree days 6 0  
Since 1 June heating degree days 42 23  
Since 1 July heating degree days 16 2  
Cooling Degree Days 7 8  
Month to date cooling degree days 94 169  
Year to date cooling degree days 635 748  
Since 1 June cooling degree days 558 684  
Growing Degree Days 22 (Base 50)    
Moisture  
Dew Point 61 °F    
Average Humidity 70    
Maximum Humidity 93    
Minimum Humidity 47    
Precipitation  
Precipitation 0.00 in 0.15 in 1.38 in (1949)
Month to date precipitation 0.96 2.84  
Year to date precipitation 28.54 24.93  
Sea Level Pressure  
Sea Level Pressure 30.06 in    
Wind  
Wind Speed 7 mph (South)    
Max Wind Speed 14 mph    
Max Gust Speed 18 mph    
Visibility 9 miles    
Events      
T = Trace of Precipitation, MM = Missing Value Source: NWS Daily Summary

Daily Weather History Graph

Daily Weather History Graph

Search for Another Location

Airport or City:

Astronomy

Aug. 19, 2013 Rise Set
Actual Time 6:23 AM CDT 8:02 PM CDT
Civil Twilight 5:54 AM CDT 8:31 PM CDT
Nautical Twilight 5:19 AM CDT 9:06 PM CDT
Astronomical Twilight 4:41 AM CDT 9:44 PM CDT
Moon 6:53 PM CDT (8/19) 4:43 AM CDT (8/19)
Length of Visible Light 14h 37m
Length of Day
13h 38m
Waxing Gibbous, 97% of the Moon is Illuminated
Aug 19
Waxing Gibbous
Aug 20
Full
Aug 28
Last Quarter
Sep 5
New
Sep 12
First Quarter

Hourly Weather History & Observations

Time (CDT) Temp. Heat Index Dew Point Humidity Pressure Visibility Wind Dir Wind Speed Gust Speed Precip Events Conditions
12:53 AM 64.0 °F - 59.0 °F 84% 30.09 in 10.0 mi South 8.1 mph - N/A   Clear
1:53 AM 62.1 °F - 59.0 °F 90% 30.09 in 10.0 mi South 6.9 mph - N/A   Clear
2:53 AM 62.1 °F - 57.9 °F 86% 30.09 in 9.0 mi SSW 5.8 mph - N/A   Clear
3:53 AM 61.0 °F - 57.9 °F 90% 30.08 in 8.0 mi SSW 4.6 mph - N/A   Clear
4:53 AM 61.0 °F - 57.9 °F 90% 30.08 in 7.0 mi South 4.6 mph - N/A   Clear
5:53 AM 59.0 °F - 57.0 °F 93% 30.10 in 6.0 mi SSW 3.5 mph - N/A   Clear
6:53 AM 59.0 °F - 57.0 °F 93% 30.10 in 4.0 mi SSW 4.6 mph - N/A   Clear
7:53 AM 66.0 °F - 62.1 °F 87% 30.09 in 5.0 mi SSW 5.8 mph - N/A   Clear
8:53 AM 70.0 °F - 64.0 °F 81% 30.10 in 7.0 mi SSW 5.8 mph - N/A   Clear
9:53 AM 75.0 °F - 66.0 °F 73% 30.10 in 10.0 mi South 6.9 mph - N/A   Clear
10:53 AM 77.0 °F - 66.0 °F 69% 30.10 in 10.0 mi SSW 5.8 mph - N/A   Clear
11:53 AM 78.1 °F - 64.0 °F 62% 30.07 in 10.0 mi South 9.2 mph - N/A   Clear
12:53 PM 81.0 °F 82.2 °F 63.0 °F 54% 30.06 in 10.0 mi SSW 12.7 mph - N/A   Clear
1:53 PM 80.1 °F 81.5 °F 63.0 °F 56% 30.04 in 10.0 mi SSW 10.4 mph - N/A   Partly Cloudy
2:53 PM 82.9 °F 84.0 °F 63.0 °F 51% 30.03 in 10.0 mi SSW 12.7 mph - N/A   Partly Cloudy
3:53 PM 84.0 °F 84.5 °F 62.1 °F 47% 30.02 in 10.0 mi SSW 9.2 mph - N/A   Scattered Clouds
4:53 PM 82.9 °F 83.3 °F 61.0 °F 47% 30.01 in 10.0 mi SSW 9.2 mph - N/A   Partly Cloudy
5:53 PM 82.0 °F 83.0 °F 62.1 °F 51% 30.01 in 9.0 mi South 5.8 mph - N/A   Clear
6:53 PM 78.1 °F - 63.0 °F 60% 30.01 in 9.0 mi South 5.8 mph - N/A   Clear
7:53 PM 72.0 °F - 63.0 °F 73% 30.01 in 9.0 mi SE 3.5 mph - N/A   Clear
8:53 PM 68.0 °F - 62.1 °F 81% 30.01 in 10.0 mi SE 3.5 mph - N/A   Partly Cloudy
9:53 PM 66.9 °F - 62.1 °F 84% 30.02 in 10.0 mi SSE 3.5 mph - N/A   Clear
10:53 PM 66.9 °F - 62.1 °F 84% 30.01 in 10.0 mi South 8.1 mph - N/A   Clear
11:53 PM 66.9 °F - 61.0 °F 81% 30.00 in 10.0 mi South 9.2 mph - N/A   Clear